Weather in Krasnaya Sloboda

Russia / Bryansk Oblast     52°27′02″N   34°01′36″E
temp.,
°C
wind,
m/s
gust,
m/s
humid.,
%
clouds,
%
prec.,
mm/h
press.,
hPa
HPBL,
m
19 april, mon
mon1900:00+5ne279452 0.0 1019204
03:00+3nne249640 0.0 1019105
06:00+3n279827 0.0 1018186
09:00+8ne468496 0.0 1018655
12:00+7ne3686100 0.1 1018880
15:00+8nne3682100 0.4 1018758
18:00+9ne5980100 0.6 1017754
21:00+6ne5108988 0.6 1018576
20 april, tue
tue2000:00+5ne4893100 0.0 1017537
03:00+5ne3894100 0.0 1015438
06:00+5ne3894100 0.1 1014460
09:00+7ne3689100 0.1 1013619
12:00+9ene4681100 0.1 1012781
15:00+10ene4780100 0.3 10091034
18:00+8ne5982100 0.1 1007779
21:00+6nne4991100 0.2 1006669
21 april, wed
wed2100:00+4n5893100 0.4 1004770
03:00+3nw51096100 1.4 1003630
06:00+4wnw51096100 0.1 1004807
09:00+6wnw5981100 0.1 10061035
12:00+8w5773100 0.2 10081148
15:00+8wsw3773100 0.6 10101137
18:00+9wsw3665100 0.1 10111347
21:00+5s248092 0.1 101372
22 april, thu
thu2200:00+6se2685100 0.4 1013221
03:00+5ssw279586 0.9 1014211
06:00+4s259852 0.0 1014139
09:00+10ssw367836 0.0 1015499
12:00+14sw57566 0.7 10151528
15:00+16sw474394 1.4 10142355
18:00+13ssw2761100 0.0 1015270
21:00+9s248196 0.1 101668
23 april, fri
fri2300:00+8s249166 1.0 101682
03:00+7s269598 1.2 1016128
06:00+7sse4119312 0.0 1015287
09:00+12s5117475 0.1 1015579
12:00+16s6105479 0.6 10141926
15:00+16ssw695593 2.0 10131871
18:00+8nw61095100 7.3 1013403
21:00+6nnw3692100 11.4 1015389